User: anonymous   Login
Location: Newark
(27.9675°N, 86.8869°E)
Time: 10:50:30
(UTC+00:00)
Language:

Courier 1B Rocket - Orbit

View from above orbital plane
View from above orbital plane
View from above satellite
View from above satellite

Ground track
Ground track

The orbit data is extracted from the following two-line orbital elements,

1    59U 60013B   19290.76124472 +.00000086 +00000-0 +11883-5 0  9998
2    59 028.2497 029.9892 0189281 040.8051 320.6503 13.52971643913579
Epoch (UTC): 17 October 2019 18:16:11
Eccentricity: 0.0189281
inclination: 28.2497°
perigee height: 920 km
apogee height: 1202 km
right ascension of ascending node: 29.9892°
argument of perigee: 40.8051°
revolutions per day: 13.52971643
mean anomaly at epoch: 320.6503°
orbit number at epoch: 91357

The dashed part of the orbit path shows where the satellite is in the earth's shadow,  

DLR